Regional Weather Roundup
Issued by NWS

Home | Current Version | Previous Version | Graphics & Text | Print | Product List | Glossary On
Versions: 1 2 3 4 5 6 7 8 9 10 11 12 13 14 15 16 17 18 19 20 21 22 23 24 25 26 27 28 29 30 31 32 33 34 35 36 37 38 39 40 41 42 43 44 45 46 47 48 49 50
000
ASUS43 KBIS 270310
RWRND

NORTH DAKOTA REGIONAL WEATHER ROUNDUP
NATIONAL WEATHER SERVICE BISMARCK ND
900 PM CST WED NOV 26 2014

NOTE: "FAIR" INDICATES FEW OR NO CLOUDS BELOW 12,000 FEET WITH NO
SIGNIFICANT WEATHER AND/OR OBSTRUCTIONS TO VISIBILITY.


NDZ001>003-009>011-017-270400-
NORTHWEST NORTH DAKOTA

CITY           SKY/WX    TMP DP  RH WIND       PRES   REMARKS
WILLISTON      CLOUDY     8   3  80 CALM      30.38S
MINOT          CLOUDY   -12 -16  82 SW9       30.44S WCI -30
MINOT AFB      CLOUDY   -25 -30  78 W5        30.45S WCI -39
$$

NDZ018>021-031>035-040>046-270400-
SOUTHWEST NORTH DAKOTA

CITY           SKY/WX    TMP DP  RH WIND       PRES   REMARKS
BISMARCK       MOCLDY    -5 -10  79 NE8       30.46S WCI -20
DICKINSON      MOCLDY    10   7  87 SE5       30.31S WCI   2
GARRISON         N/A     -7 -21  51 N3        30.43R
HETTINGER ARPT CLOUDY    12   9  87 SE6       30.33R WCI   3
$$

NDZ004>008-012>016-024-026-027-054-270400-
NORTHEAST NORTH DAKOTA

CITY           SKY/WX    TMP DP  RH WIND       PRES   REMARKS
GRAND FORKS    PTCLDY   -11 -17  75 NW5       30.55R WCI -23
GRND FRKS AFB  PTCLDY   -12 -17  78 NW3       30.54R
DEVILS LAKE    PTCLDY    -6 -18  54 CALM      30.45R
$$

NDZ022-023-025-028>030-036>039-047>053-270400-
SOUTHEAST NORTH DAKOTA

CITY           SKY/WX    TMP DP  RH WIND       PRES   REMARKS
FARGO          PTCLDY    -8 -14  74 N7        30.53S WCI -23
JAMESTOWN      MOCLDY   -14 -17  87 W5        30.47R WCI -26
$$



USA.gov is the U.S. government's official web portal to all federal, state and local government web resources and services.